JE4YIZ-13 Weather Reports


Display with metric or nautical units.
time (UTC)temp
F
wind
direction
speed
MPH
gust
MPH
rain 1hr
in
rain 24hr
in
rain mn
in
humidity
%
barometer
mb
20260505201127 52 172 0.0 0.0 0.00 0.00 0.00 89 1017.2
20260505200616 52 172 0.0 0.0 0.00 0.00 0.00 89 1017.1
20260505200113 52 172 0.0 1.0 0.00 0.00 0.00 89 1017.0
20260505195630 52 172 0.0 1.0 0.00 0.00 0.00 89 1016.9
20260505195116 52 172 0.0 0.0 0.00 0.00 0.00 89 1016.9
20260505194631 52 172 0.0 1.0 0.00 0.00 0.00 89 1016.9
20260505194116 53 172 0.0 1.0 0.00 0.00 0.00 89 1016.7
20260505193631 53 172 0.0 1.0 0.00 0.00 0.00 89 1016.9
20260505193120 53 172 0.0 0.0 0.00 0.00 0.00 89 1016.9
20260505192636 53 172 0.0 1.0 0.00 0.00 0.00 89 1016.9
20260505192127 53 172 0.0 1.0 0.00 0.00 0.00 89 1016.9
20260505191615 53 172 0.0 0.0 0.00 0.00 0.00 89 1016.9
20260505191130 54 172 0.0 1.0 0.00 0.00 0.00 89 1016.8
20260505190617 54 172 0.0 1.0 0.00 0.00 0.00 89 1016.8
20260505190113 54 172 0.0 0.0 0.00 0.00 0.00 89 1016.8
20260505185626 54 172 0.0 0.0 0.00 0.00 0.00 89 1016.7
20260505185117 54 172 0.0 0.0 0.00 0.00 0.00 89 1016.7
20260505184128 54 172 0.0 1.0 0.00 0.00 0.00 89 1016.8
20260505183617 54 172 0.0 1.0 0.00 0.00 0.00 89 1016.9
20260505183134 54 172 0.0 1.0 0.00 0.00 0.00 89 1016.9
20260505182618 54 172 0.0 1.0 0.00 0.00 0.00 89 1016.9
20260505182132 54 172 0.0 1.0 0.00 0.00 0.00 89 1016.9
20260505181617 55 172 0.0 1.0 0.00 0.00 0.00 89 1016.9
20260505181130 55 172 0.0 1.0 0.00 0.00 0.00 89 1016.9
20260505180615 54 172 0.0 0.0 0.00 0.00 0.00 89 1017.0
20260505180128 54 172 0.0 1.0 0.00 0.00 0.00 89 1017.1
20260505175617 54 172 0.0 1.0 0.00 0.00 0.00 89 1017.1
20260505175110 54 172 0.0 1.0 0.00 0.00 0.00 90 1017.0
20260505174627 54 172 0.0 0.0 0.00 0.00 0.00 89 1016.9
20260505174116 54 172 0.0 0.0 0.00 0.00 0.00 89 1016.9
20260505173611 54 172 0.0 0.0 0.00 0.00 0.00 88 1017.0
20260505173116 54 172 0.0 0.0 0.00 0.00 0.00 88 1017.1
20260505172635 54 172 0.0 0.0 0.00 0.00 0.00 88 1017.0
20260505172117 53 172 0.0 0.0 0.00 0.00 0.00 88 1017.0
20260505171612 54 172 0.0 0.0 0.00 0.00 0.00 88 1017.1
20260505171127 54 172 0.0 0.0 0.00 0.00 0.00 88 1017.2
20260505170617 54 172 0.0 0.0 0.00 0.00 0.00 88 1017.2
20260505170110 54 172 0.0 0.0 0.00 0.00 0.00 88 1017.2
20260505165626 54 172 0.0 1.0 0.00 0.00 0.00 88 1017.3
20260505165114 54 172 0.0 1.0 0.00 0.00 0.00 88 1017.3
20260505164617 54 172 0.0 1.0 0.00 0.00 0.00 88 1017.2
20260505164112 54 172 0.0 0.0 0.00 0.00 0.00 87 1017.4
20260505163626 54 172 0.0 0.0 0.00 0.00 0.00 87 1017.3
20260505163114 54 172 0.0 0.0 0.00 0.00 0.00 87 1017.4
20260505162649 54 172 0.0 1.0 0.00 0.00 0.00 87 1017.4
20260505162117 54 172 0.0 1.0 0.00 0.00 0.00 87 1017.5
20260505161613 54 172 0.0 0.0 0.00 0.00 0.00 87 1017.5
20260505161128 54 172 0.0 0.0 0.00 0.00 0.00 87 1017.5
20260505160615 54 172 0.0 0.0 0.00 0.00 0.00 87 1017.7
20260505160132 54 172 0.0 0.0 0.00 0.00 0.00 86 1017.7
20260505153115 55 177 0.0 0.0 0.00 0.00 0.00 85 1017.8
20260505152631 55 177 0.0 0.0 0.00 0.00 0.00 85 1017.8
20260505152138 55 177 0.0 0.0 0.00 0.00 0.00 85 1017.9
20260505151631 55 177 0.0 1.0 0.00 0.00 0.00 84 1017.9
20260505151141 55 177 0.0 1.0 0.00 0.00 0.00 85 1017.9
20260505150628 55 177 0.0 0.0 0.00 0.00 0.00 84 1017.9
20260505150119 55 188 0.0 0.0 0.00 0.00 0.00 84 1017.8
20260505140619 58 190 1.0 2.0 0.00 0.00 0.00 77 1017.7
20260505140131 59 136 1.0 1.0 0.00 0.00 0.00 75 1017.6
20260505130124 58 158 1.0 2.0 0.00 0.00 0.00 80 1017.5
20260505124614 58 177 1.0 2.0 0.00 0.00 0.00 80 1017.4
20260505124128 58 177 2.0 2.0 0.00 0.00 0.00 80 1017.4
20260505123613 58 174 0.0 1.0 0.00 0.00 0.00 79 1017.3
20260505123124 59 174 1.0 2.0 0.00 0.00 0.00 79 1017.3
20260505122636 59 174 1.0 2.0 0.00 0.00 0.00 79 1017.2
20260505122120 59 174 0.0 2.0 0.00 0.00 0.00 78 1017.1
20260505121632 59 174 1.0 2.0 0.00 0.00 0.00 78 1017.1
20260505121112 59 177 0.0 3.0 0.00 0.00 0.00 77 1017.0
20260505120624 60 194 2.0 3.0 0.00 0.00 0.00 77 1017.0
20260505120136 60 176 1.0 4.0 0.00 0.00 0.00 76 1017.0
20260505115621 60 182 1.0 4.0 0.00 0.00 0.00 76 1017.0
20260505115133 59 176 2.0 4.0 0.00 0.00 0.00 76 1017.0
20260505114618 59 173 1.0 2.0 0.00 0.00 0.00 76 1016.9
20260505114132 59 161 0.0 1.0 0.00 0.00 0.00 75 1016.8
20260505113623 59 161 0.0 1.0 0.00 0.00 0.00 74 1016.9
20260505113130 59 161 0.0 1.0 0.00 0.00 0.00 74 1016.9
20260505112616 59 161 0.0 1.0 0.00 0.00 0.00 73 1016.7
20260505112149 59 161 0.0 2.0 0.00 0.00 0.00 73 1016.5
20260505111613 59 169 0.0 1.0 0.00 0.00 0.00 73 1016.5
20260505111123 59 169 0.0 1.0 0.00 0.00 0.00 72 1016.4
20260505110636 59 169 0.0 2.0 0.00 0.00 0.00 72 1016.4
20260505110142 60 168 0.0 2.0 0.00 0.00 0.00 71 1016.4
20260505102135 61 148 1.0 3.0 0.00 0.00 0.00 69 1016.3
20260505101618 61 117 0.0 3.0 0.00 0.00 0.00 69 1016.3
20260505101133 61 316 0.0 3.0 0.00 0.00 0.00 68 1016.3
20260505100613 61 164 1.0 4.0 0.00 0.00 0.00 68 1016.3
20260505100123 61 179 1.0 4.0 0.00 0.00 0.00 68 1016.3
20260505095635 61 185 1.0 7.0 0.00 0.00 0.00 67 1016.4
20260505095119 62 143 1.0 7.0 0.00 0.00 0.00 67 1016.4
20260505094627 62 238 2.0 5.0 0.00 0.00 0.00 67 1016.4
20260505094113 63 191 1.0 5.0 0.00 0.00 0.00 66 1016.3
20260505093634 64 129 1.0 5.0 0.00 0.00 0.00 65 1016.3
20260505093146 64 85 2.0 5.0 0.00 0.00 0.00 64 1016.3
20260505092633 64 115 1.0 4.0 0.00 0.00 0.00 62 1016.3
20260505092119 65 181 1.0 4.0 0.00 0.00 0.00 61 1016.3
20260505091628 65 120 2.0 4.0 0.00 0.00 0.00 60 1016.3
20260505091111 65 187 1.0 5.0 0.00 0.00 0.00 58 1016.4
20260505090623 66 166 2.0 5.0 0.00 0.00 0.00 55 1016.3
20260505090155 67 155 1.0 3.0 0.00 0.00 0.00 55 1016.3
20260505085619 67 95 1.0 4.0 0.00 0.00 0.00 53 1016.3
20260505085110 67 136 1.0 4.0 0.00 0.00 0.00 52 1016.2
20260505084639 67 239 2.0 5.0 0.00 0.00 0.00 49 1016.3
20260505084111 68 122 1.0 5.0 0.00 0.00 0.00 47 1016.1
20260505083622 68 118 1.0 6.0 0.00 0.00 0.00 46 1016.1
20260505083135 68 135 2.0 6.0 0.00 0.00 0.00 46 1016.1
20260505082619 68 167 2.0 8.0 0.00 0.00 0.00 45 1016.0
20260505082110 68 130 2.0 8.0 0.00 0.00 0.00 43 1016.1
20260505081622 68 108 2.0 5.0 0.00 0.00 0.00 43 1016.1
20260505081134 68 165 1.0 6.0 0.00 0.00 0.00 42 1016.1
20260505080618 68 143 2.0 6.0 0.00 0.00 0.00 43 1016.1
20260505080122 68 138 2.0 9.0 0.00 0.00 0.00 42 1016.1
20260505075656 68 318 2.0 9.0 0.00 0.00 0.00 41 1016.1
20260505075121 68 105 4.0 7.0 0.00 0.00 0.00 42 1016.1
20260505074635 69 72 2.0 7.0 0.00 0.00 0.00 42 1016.1
20260505074120 68 3 3.0 7.0 0.00 0.00 0.00 41 1016.1
20260505073632 69 101 2.0 9.0 0.00 0.00 0.00 42 1016.2
20260505073119 68 66 3.0 9.0 0.00 0.00 0.00 42 1016.3
20260505072633 69 75 2.0 8.0 0.00 0.00 0.00 41 1016.3
20260505072121 69 12 3.0 8.0 0.00 0.00 0.00 39 1016.3
20260505071634 69 113 2.0 7.0 0.00 0.00 0.00 42 1016.3
20260505071142 69 32 3.0 6.0 0.00 0.00 0.00 41 1016.2
20260505070631 69 113 3.0 7.0 0.00 0.00 0.00 42 1016.2
20260505070118 69 178 3.0 7.0 0.00 0.00 0.00 42 1016.3
20260505065632 69 88 3.0 6.0 0.00 0.00 0.00 40 1016.3
20260505065120 69 121 3.0 7.0 0.00 0.00 0.00 44 1016.3
20260505063614 69 6 3.0 8.0 0.00 0.00 0.00 42 1016.4
20260505063141 69 94 2.0 9.0 0.00 0.00 0.00 43 1016.4
20260505062616 69 60 5.0 9.0 0.00 0.00 0.00 40 1016.4
20260505062131 69 348 4.0 9.0 0.00 0.00 0.00 38 1016.4
20260505061617 69 67 4.0 9.0 0.00 0.00 0.00 35 1016.4
20260505061133 70 75 5.0 8.0 0.00 0.00 0.00 35 1016.3
20260505060623 70 37 4.0 9.0 0.00 0.00 0.00 34 1016.4
20260505060136 70 30 5.0 8.0 0.00 0.00 0.00 34 1016.4
20260505055622 70 67 4.0 6.0 0.00 0.00 0.00 34 1016.4
20260505055130 70 111 3.0 8.0 0.00 0.00 0.00 34 1016.4
20260505054637 69 67 3.0 10.0 0.00 0.00 0.00 35 1016.6
20260505054130 69 61 5.0 11.0 0.00 0.00 0.00 35 1016.7
20260505053619 69 65 3.0 9.0 0.00 0.00 0.00 34 1016.6
20260505053152 69 65 4.0 10.0 0.00 0.00 0.00 35 1016.7
20260505052618 69 68 5.0 10.0 0.00 0.00 0.00 35 1016.7
20260505052132 69 97 5.0 9.0 0.00 0.00 0.00 35 1016.7
20260505051620 69 82 5.0 9.0 0.00 0.00 0.00 35 1016.7
20260505051154 69 96 5.0 8.0 0.00 0.00 0.00 35 1016.7
20260505050618 69 68 5.0 9.0 0.00 0.00 0.00 39 1016.8
20260505050132 69 91 4.0 11.0 0.00 0.00 0.00 42 1016.9
20260505041627 69 62 4.0 8.0 0.00 0.00 0.00 53 1017.7
20260505041134 68 232 2.0 9.0 0.00 0.00 0.00 57 1017.7
20260505040619 68 278 4.0 9.0 0.00 0.00 0.00 56 1017.7
20260505040133 68 37 3.0 8.0 0.00 0.00 0.00 55 1017.8
20260505035642 68 60 5.0 10.0 0.00 0.00 0.00 54 1017.7
20260505035133 67 106 5.0 10.0 0.00 0.00 0.00 51 1017.8
20260505034618 68 123 4.0 7.0 0.00 0.00 0.00 54 1017.8
20260505034131 68 55 3.0 6.0 0.00 0.00 0.00 55 1018.0
20260505033614 67 130 2.0 7.0 0.00 0.00 0.00 54 1018.1
20260505032626 67 167 2.0 6.0 0.00 0.00 0.00 62 1018.2
20260505032113 67 245 2.0 6.0 0.00 0.00 0.00 60 1018.2
20260505031628 67 225 3.0 6.0 0.00 0.00 0.00 62 1018.3
20260505031115 66 136 3.0 6.0 0.00 0.00 0.00 64 1018.3
20260505030629 66 134 3.0 10.0 0.00 0.00 0.00 65 1018.4
20260505030116 66 44 4.0 10.0 0.00 0.00 0.00 66 1018.4
20260505025610 66 109 3.0 11.0 0.00 0.00 0.00 65 1018.4
20260505025122 66 65 4.0 11.0 0.00 0.00 0.00 65 1018.5
20260505024631 65 63 5.0 7.0 0.00 0.00 0.00 65 1018.6
20260505024141 65 48 4.0 8.0 0.00 0.00 0.00 65 1018.6
20260505023633 65 56 3.0 8.0 0.00 0.00 0.00 64 1018.8
20260505023120 65 342 3.0 7.0 0.00 0.00 0.00 65 1018.8
20260505022633 65 309 4.0 7.0 0.00 0.00 0.00 65 1019.0
20260505022119 65 74 3.0 10.0 0.00 0.00 0.00 67 1019.0
20260505021611 64 82 4.0 10.0 0.00 0.00 0.00 67 1018.9
20260505021122 64 59 5.0 9.0 0.00 0.00 0.00 66 1018.9
20260505020615 64 103 4.0 7.0 0.00 0.00 0.00 67 1018.9
20260505020122 64 75 5.0 8.0 0.00 0.00 0.00 66 1019.0
20260505015635 64 58 3.0 8.0 0.00 0.00 0.00 66 1019.1
20260505015120 64 75 5.0 8.0 0.00 0.00 0.00 66 1019.0
20260505014611 64 114 2.0 8.0 0.00 0.00 0.00 66 1019.0
20260505014123 64 53 4.0 7.0 0.00 0.00 0.00 67 1019.0
20260505013635 64 82 4.0 8.0 0.00 0.00 0.00 67 1019.1
20260505013123 63 45 5.0 8.0 0.00 0.00 0.00 69 1019.1
20260505012634 63 64 5.0 9.0 0.00 0.00 0.00 69 1019.1
20260505012115 63 116 4.0 9.0 0.00 0.00 0.00 70 1019.1
20260505011626 63 77 5.0 9.0 0.00 0.00 0.00 70 1019.0
20260505011137 63 54 4.0 7.0 0.00 0.00 0.00 71 1019.1
20260505010621 63 302 5.0 7.0 0.00 0.00 0.00 71 1019.1
20260505010134 63 14 4.0 7.0 0.00 0.00 0.00 72 1019.0
20260505005618 63 328 3.0 8.0 0.00 0.00 0.00 73 1019.0
20260505005123 62 56 4.0 8.0 0.00 0.00 0.00 72 1019.0
20260505004656 63 24 2.0 7.0 0.00 0.00 0.00 73 1018.9
20260505004117 62 12 2.0 7.0 0.00 0.00 0.00 74 1018.9
20260505003628 62 139 2.0 8.0 0.00 0.00 0.00 73 1018.8
20260505003114 62 62 5.0 10.0 0.00 0.00 0.00 73 1018.8
20260505002625 62 34 4.0 10.0 0.00 0.00 0.00 72 1018.9
20260505002137 62 317 4.0 7.0 0.00 0.00 0.00 72 1018.8
20260505001621 62 61 3.0 6.0 0.00 0.00 0.00 71 1018.8
20260505001134 62 335 2.0 6.0 0.00 0.00 0.00 72 1018.7
20260505000618 62 9 2.0 6.0 0.00 0.00 0.00 72 1018.7
20260505000112 61 184 2.0 6.0 0.00 0.00 0.00 72 1018.7
20260504235121 61 329 1.0 6.0 0.00 0.00 0.00 71 1018.8
20260504234632 60 128 2.0 6.0 0.00 0.00 0.00 71 1018.9
20260504234117 60 305 2.0 8.0 0.00 0.00 0.00 71 1018.8
20260504233629 60 98 2.0 8.0 0.00 0.00 0.00 71 1018.8
20260504233113 60 96 3.0 5.0 0.00 0.00 0.00 71 1018.8
20260504232623 60 96 2.0 4.0 0.00 0.00 0.00 72 1018.8
20260504232134 60 82 2.0 5.0 0.00 0.00 0.00 72 1018.6
20260504231619 60 82 3.0 5.0 0.00 0.00 0.00 73 1018.5
20260504231125 59 35 2.0 4.0 0.00 0.00 0.00 73 1018.6
20260504230635 59 65 2.0 5.0 0.00 0.00 0.00 74 1018.6
20260504230119 59 147 2.0 5.0 0.00 0.00 0.00 75 1018.5
20260504225610 59 176 1.0 4.0 0.00 0.00 0.00 75 1018.4
20260504225120 58 180 1.0 3.0 0.00 0.00 0.00 77 1018.5
20260504224631 58 158 0.0 3.0 0.00 0.00 0.00 79 1018.5
20260504224116 58 78 1.0 2.0 0.00 0.00 0.00 80 1018.4
20260504223627 57 174 0.0 1.0 0.00 0.00 0.00 82 1018.3
20260504223133 56 174 0.0 4.0 0.00 0.00 0.00 82 1018.3
20260504222616 56 186 1.0 4.0 0.00 0.00 0.00 82 1018.3
20260504222149 56 196 1.0 3.0 0.00 0.00 0.00 83 1018.3
20260504221611 55 179 0.0 3.0 0.00 0.00 0.00 84 1018.4
20260504221122 55 194 1.0 3.0 0.00 0.00 0.00 85 1018.2
20260504220633 54 186 0.0 4.0 0.00 0.00 0.00 86 1018.3
20260504220117 54 205 2.0 4.0 0.00 0.00 0.00 87 1018.2
20260504215648 53 182 1.0 3.0 0.00 0.00 0.00 88 1018.1
20260504215136 53 188 1.0 2.0 0.00 0.00 0.00 88 1018.2
20260504214642 52 187 1.0 3.0 0.00 0.00 0.00 89 1018.2
20260504214153 52 176 1.0 3.0 0.00 0.00 0.00 89 1018.1
20260504213617 51 185 1.0 3.0 0.00 0.00 0.00 90 1017.9
20260504213127 51 186 2.0 3.0 0.00 0.00 0.00 90 1017.9
20260504212611 50 186 1.0 4.0 0.00 0.00 0.00 90 1017.9
20260504212113 50 183 1.0 4.0 0.00 0.00 0.00 90 1017.8
20260504211624 50 195 2.0 3.0 0.00 0.00 0.00 90 1017.7
20260504211110 49 200 2.0 3.0 0.00 0.00 0.00 91 1017.8
20260504210621 49 191 1.0 2.0 0.00 0.00 0.00 91 1017.7
20260504210134 49 168 1.0 1.0 0.00 0.00 0.00 90 1017.7
20260504205620 48 167 0.0 1.0 0.00 0.00 0.00 90 1017.6
20260504205152 48 167 0.0 1.0 0.00 0.00 0.00 90 1017.7
20260504204617 48 167 0.0 1.0 0.00 0.00 0.00 90 1017.7
20260504204110 48 167 0.0 1.0 0.00 0.00 0.00 90 1017.7
20260504203638 48 167 0.0 1.0 0.00 0.00 0.00 90 1017.6
20260504203125 48 168 0.0 1.0 0.00 0.00 0.00 90 1017.5
20260504202611 48 167 0.0 0.0 0.00 0.00 0.00 89 1017.6
20260504202128 48 168 0.0 0.0 0.00 0.00 0.00 89 1017.6
20260504201615 48 167 0.0 0.0 0.00 0.00 0.00 89 1017.5